Starlink 31880

operational
NORAD ID: 59661 Int'l Des: 2024-084 Owner: SPXS Country: US Constellation: starlink
LEOCIRCULAR

关于 Starlink 31880

正在加载描述...

实时位置

正在加载3D地球...

即将过境

高度历史

Altitude vs Time

uPlot chart will show altitude changes over time

两行轨道根数

1 59661U 24084H 25305.58979138 -.00001193 00000-0 -33840-4 0 9998
2 59661 43.0046 41.6330 0000989 295.8319 64.2431 15.27565119 84820
Epoch: Nov 1, 2025 • Age: 24 hours

当前状态

高度 488.2 km
速度 7.62 km/s
星下点 -22.08°S, 19.97°W
发射日期 May 6, 2024
运行时间 1.4 years
类型 internet

技术详情

分类 Payload
质量 730.00 kg
干质量 700.00 kg
总质量 730.00 kg
长度 0.30 m
直径 4.10 m
跨度 29.00 m
形状 Box + pan
制造商 SPXS
平台类型 Starlink V2M
阶段状态 In Orbit
所有者/国家 SPXS/US

大型星座

Loading constellations...